EWG75D EDDH-EDDP

Flight info

Callsign EWG75D
Flight time N/A
Altitude 23000
Route AMLUH2G/33 AMLUH M852 DENIX Z113 SAS Z88 UPDAT/N0424F250 T236 ADMOS/N0411F230 T959 KOJEC KOJEC1V
Aircraft A320/M-SDE3FGHIRWY/LB1

Departure

Time 2026-04-25 21:54
Airport Hamburg Helmut Schmidt Airport (EDDH)

Arrival

Time N/A
Airport Leipzig/Halle Airport (EDDP)
Time Latitude Longitude Altitude Speed Heading
2026-04-25 21:30 53.63247 10.00361 49 ft 0 kts 87°
2026-04-25 21:45 53.63246 10.00343 48 ft 4 kts 87°
2026-04-25 21:45 53.63245 10.00298 48 ft 4 kts 87°
2026-04-25 21:46 53.63243 10.00253 48 ft 4 kts 87°
2026-04-25 21:46 53.63242 10.00216 48 ft 4 kts 95°
2026-04-25 21:46 53.63251 10.00181 48 ft 4 kts 158°
2026-04-25 21:46 53.63272 10.00174 48 ft 1 kts 176°
2026-04-25 21:50 53.63268 10.00175 47 ft 4 kts 176°
2026-04-25 21:51 53.63167 10.00186 45 ft 19 kts 176°
2026-04-25 21:51 53.63044 10.00156 48 ft 17 kts 210°
2026-04-25 21:51 53.62996 10.00106 46 ft 6 kts 213°
2026-04-25 21:51 53.62964 10.00071 47 ft 7 kts 213°
2026-04-25 21:52 53.62923 10.00000 48 ft 10 kts 238°
2026-04-25 21:52 53.62891 9.99894 45 ft 11 kts 244°
2026-04-25 21:52 53.62867 9.99755 45 ft 13 kts 305°
2026-04-25 21:52 53.62903 9.99714 45 ft 0 kts 334°
2026-04-25 21:53 53.63003 9.99629 45 ft 50 kts 333°
2026-04-25 21:54 53.63515 9.99187 47 ft 113 kts 333°
2026-04-25 21:54 53.64368 9.98448 88 ft 157 kts 331°
2026-04-25 21:54 53.65342 9.97624 671 ft 158 kts 331°
2026-04-25 21:54 53.66333 9.96784 1404 ft 161 kts 331°
2026-04-25 21:55 53.67324 9.95907 2166 ft 161 kts 333°
2026-04-25 21:55 53.68318 9.95057 2881 ft 162 kts 338°
2026-04-25 21:55 53.69467 9.94599 3212 ft 182 kts 358°
2026-04-25 21:55 53.70779 9.94629 3727 ft 192 kts 360°
2026-04-25 21:56 53.72120 9.94816 4516 ft 197 kts 17°
2026-04-25 21:56 53.72905 9.95608 5013 ft 205 kts 40°
2026-04-25 21:56 53.73714 9.98658 5964 ft 225 kts 69°
2026-04-25 21:56 53.74049 10.01277 6649 ft 235 kts 76°
2026-04-25 21:57 53.73925 10.04129 7247 ft 256 kts 99°
2026-04-25 21:57 53.73131 10.07021 7553 ft 287 kts 115°
2026-04-25 21:57 53.72112 10.10013 7960 ft 306 kts 116°
2026-04-25 21:57 53.71035 10.13185 8622 ft 316 kts 115°
2026-04-25 21:58 53.69879 10.16371 9342 ft 326 kts 124°
2026-04-25 21:58 53.68296 10.19189 10061 ft 336 kts 140°
2026-04-25 21:58 53.66290 10.21350 10504 ft 352 kts 157°
2026-04-25 21:58 53.63906 10.22682 10727 ft 373 kts 169°
2026-04-25 21:59 53.61317 10.23815 10913 ft 396 kts 168°
2026-04-25 21:59 53.58613 10.25020 11372 ft 407 kts 168°
2026-04-25 21:59 53.55856 10.26273 11982 ft 414 kts 167°